Location: Joplin, MO
(37.0842°N, 94.5133°W)
Time: 21:08:50
(UTC+02:00)

Courier 1B Rocket - Pass Details

Date: 07 April 2023
Orbit: 920 x 1202 km, 28.2° (Epoch: 05 June)

Event Time Altitude Azimuth Distance (km) Brightness Sun altitude
Rises 23:08:27 0° 239° (WSW) 4,059 9.1 41.4°
Reaches altitude 10° 23:11:30 10° 232° (SW) 3,114 8.8 40.8°
Maximum altitude 23:18:31 37° 168° (SSE) 1,765 6.9 39.6°
Drops below altitude 10° 23:25:29 10° 104° (ESE) 3,098 7.3 38.3°
Sets 23:28:30 0° 96° (E) 4,037 7.8 37.8°
